Wetbulb
30.08 29.27 29.22 29.17 29.23 28.09 28.02 30.16 29.36 30.98 29.13 29.56 32.66 31.78 31.07 31.05 30.55 29.16 29.32 28.51 27.44 27.16 26.69 26.06 24.11 24.03 23.90 24.07 24.18 24.07 23.08 23.10 22.92 23.24 22.03 21.11 20.29 19.30 18.77 18.52 18.09 17.84 17.27 16.80
24.33 29.58 28.70 27.35 29.46 28.03 30.36 30.26 28.28 27.51 27.73 33.23 31.84 29.38 27.69 30.36 30.40 28.44 28.41 29.38 29.20 26.99 26.56 25.52 25.08 24.64 24.96 23.75 23.45 23.51 22.68 22.62 22.22 21.06 20.79 19.41 18.43 17.72 17.28 16.64 15.72 15.50 14.88 14.25
25.94 23.66 25.19 24.78 27.01 28.88 29.11 29.02 30.77 27.36 31.19 23.85 25.52 27.29 27.13 26.63 26.44 27.11 27.50 28.31 28.30 26.74 25.60 25.55 24.72 26.03 23.61 24.19 23.02 21.54 20.88 18.40 18.03 18.14 17.15 16.11 15.52 15.14 14.54 13.36 13.39 12.52 12.35 12.20
20.20 20.80 16.99 24.73 21.22 25.88 30.22 30.05 28.00 23.16 20.79 22.44 23.88 24.55 26.67 25.86 26.05 26.31 26.08 25.49 25.79 26.09 24.52 24.70 24.76 24.08 23.68 23.81 21.73 20.63 18.65 15.80 15.71 15.66 13.42 13.39 12.40 11.62 11.54 11.34 10.52 10.01 9.96 9.67
21.17 18.26 21.84 24.19 22.27 21.63 22.25 22.09 22.74 25.02 24.34 23.86 23.63 20.89 20.73 24.42 24.48 25.15 24.43 25.10 25.01 24.71 24.18 23.07 23.32 23.39 22.22 20.82 20.65 19.32 17.49 16.62 14.83 13.05 10.25 10.27 6.78 8.04 8.84 8.12 7.68 6.63 9.40 7.45
15.74 15.52 15.44 18.96 22.47 24.72 24.88 15.98 19.60 23.04 22.22 19.34 20.49 14.76 19.19 23.94 24.44 24.54 24.69 24.91 25.15 25.09 24.37 23.61 23.02 21.77 20.21 18.84 17.66 16.72 16.62 16.53 13.88 11.62 6.33 5.45 7.87 6.09 6.32 3.37 7.42 7.76 7.27 6.50
19.92 20.39 19.76 20.25 21.41 24.28 14.80 20.05 17.13 19.26 20.29 19.68 18.73 21.91 24.32 24.39 23.40 24.88 25.03 25.08 24.70 23.62 23.38 23.04 20.80 18.89 18.20 16.24 15.66 14.68 13.83 11.78 10.18 9.40 5.28 4.53 3.53 4.03 1.01 -0.10 4.37 0.79 2.82 3.46
15.39 16.18 15.90 22.37 21.59 19.89 23.01 22.09 22.89 22.20 22.67 22.92 23.81 24.61 23.91 24.22 24.35 24.01 24.30 24.70 25.16 23.08 22.43 20.91 18.53 17.65 16.32 15.07 13.81 11.49 9.73 8.90 8.06 3.43 5.39 4.06 -5.39 -3.91 -4.54 -5.09 -3.95 -2.76 -1.91 0.26
19.53 18.39 22.52 24.23 23.73 25.63 25.33 22.89 22.67 23.17 24.26 24.34 23.39 23.10 23.90 23.26 22.86 23.48 23.74 23.84 23.31 21.83 21.01 18.26 15.47 15.60 14.55 12.93 10.72 7.97 5.25 4.60 2.21 3.03 3.44 3.80 -2.73 -0.60 -3.72 -7.19 -5.89 -2.13 0.56 0.76
17.58 19.43 21.20 23.50 25.12 24.65 24.88 25.07 25.57 25.40 24.57 24.19 24.15 24.14 23.55 22.87 22.59 22.23 21.58 21.75 18.61 15.27 15.41 15.07 11.38 13.30 10.38 9.70 8.08 1.55 -1.67 2.82 3.64 2.02 1.95 1.71 3.01 2.54 -5.29 -5.93 -2.85 -0.95 -0.58 0.26
15.97 20.18 21.61 23.66 24.31 26.20 25.50 25.25 24.02 24.05 24.98 24.88 23.53 23.07 22.31 21.78 21.17 21.37 21.41 18.87 16.05 17.09 16.99 15.56 10.72 8.35 5.78 6.27 3.44 0.01 -0.61 3.02 2.57 2.85 1.25 1.38 1.21 -0.24 0.75 1.64 2.26 -0.36 1.75 5.55
15.29 23.38 23.63 24.43 26.67 26.75 25.06 24.97 24.30 23.50 22.18 22.04 22.76 23.04 22.24 21.68 21.89 21.22 20.34 15.04 13.92 13.38 12.44 8.97 7.55 5.53 1.81 1.19 0.73 -0.50 1.51 2.86 2.64 2.09 1.56 1.03 -0.34 -0.76 6.68 11.32 14.16 15.65 17.03 15.77
23.23 25.11 25.18 26.41 26.30 25.54 24.68 24.34 24.14 22.70 23.13 22.73 21.63 21.60 19.64 20.74 18.71 18.10 13.14 12.69 12.69 11.75 8.09 5.81 4.30 3.70 0.05 -3.05 -3.99 -4.15 -2.78 2.47 1.14 0.91 -0.67 -1.63 -3.27 -3.33 -4.73 -0.03 8.53 10.76 12.62 13.45
25.64 24.48 22.72 24.05 25.06 24.80 24.34 24.09 21.65 19.88 20.33 21.19 21.84 15.70 16.27 15.64 9.72 9.92 11.36 10.12 7.81 6.50 2.39 0.46 -1.30 -3.37 -4.06 -5.50 -7.33 -7.44 -2.61 0.13 -2.18 -1.59 -3.39 -6.04 -5.65 -5.77 -5.90 -6.75 -7.09 -4.61 3.14 7.41
24.43 24.78 27.48 24.64 22.47 23.12 20.28 18.62 16.92 18.82 18.57 16.44 13.61 14.36 11.40 10.51 9.63 9.42 5.22 2.65 2.41 -1.59 -5.19 -4.94 -7.23 -4.09 -6.93 -7.61 -6.40 -4.26 -3.39 -3.10 -3.56 -4.35 -5.93 -6.77 -6.47 -5.57 -6.28 -6.83 -6.47 -6.73 -4.73 0.33
22.32 21.35 21.50 20.20 23.36 19.95 17.60 13.66 17.44 19.19 16.79 16.29 12.41 10.22 10.24 7.20 4.14 0.13 -3.28 -5.35 -3.31 -5.46 -7.97 -8.94 -7.18 -7.10 -10.70 -11.22 -9.33 -9.33 -6.31 -3.27 -3.77 -9.20 -10.74 -10.56 -7.91 -8.45 -7.24 -8.35 -8.76 -9.27 -7.22 -5.44
16.20 15.98 8.48 12.51 19.45 20.32 17.31 19.58 20.47 20.51 13.60 12.18 10.71 5.42 2.09 -1.95 -5.86 -9.79 -15.66 -17.64 -15.34 -13.30 -14.42 -12.95 -8.71 -12.49 -15.97 -12.64 -11.25 -7.74 -9.47 -10.30 -8.46 -13.63 -14.27 -13.74 -13.72 -12.18 -8.93 -11.04 -9.98 -10.71 -6.95 -2.30
24.40 24.88 19.12 19.06 18.68 18.19 16.50 16.56 14.58 9.77 6.66 4.64 3.10 0.56 -2.50 -4.29 -5.70 -11.11 -18.10 -21.93 -18.93 -15.34 -16.57 -13.24 -13.45 -15.97 -18.35 -19.19 -16.53 -12.83 -12.18 -13.37 -18.40 -16.35 -14.34 -13.78 -14.05 -11.37 -10.88 -11.29 -10.76 -8.51 -4.99 -4.18
16.04 19.66 14.57 14.96 9.59 9.70 6.88 5.08 2.00 1.70 0.95 0.30 0.59 -1.50 -4.60 -8.77 -10.82 -19.27 -24.06 -21.46 -20.17 -19.47 -13.18 -20.27 -4.93 -7.11 -18.10 -16.12 -13.68 -11.29 -9.76 -10.05 -10.78 -14.58 -15.75 -14.83 -15.26 -16.22 -14.71 -13.60 -11.03 -8.02 -7.42 -8.09
3.09 4.10 4.43 1.25 -0.37 -1.76 -1.53 -3.13 -3.57 -5.22 -7.94 -5.59 -6.39 -7.57 -11.92 -19.38 -21.61 -20.19 -24.02 -17.25 -18.58 -13.45 -18.76 -19.07 -18.85 -13.52 -13.59 -15.20 -5.30 -8.92 -11.92 -11.16 -9.85 -11.75 -17.70 -16.04 -14.68 -14.57 -12.07 -9.35 -8.34 -7.81 -12.51 -13.85
-2.75 -1.16 -2.00 -3.23 -6.11 -7.04 -7.11 -6.34 -6.63 -8.24 -11.60 -7.98 -5.49 -7.73 -12.13 -23.00 -23.46 -20.07 -19.92 -16.27 -13.43 -20.46 -20.37 -14.50 -15.34 -15.18 -16.23 -14.09 -14.27 -20.98 -21.27 -16.18 -14.82 -14.66 -15.47 -11.87 -12.40 -11.63 -8.65 -8.39 -9.74 -10.56 -12.33 -15.92
-11.12 -8.17 -6.68 -7.51 -8.92 -12.92 -15.20 -11.78 -9.96 -10.17 -11.91 -12.35 -13.50 -13.84 -14.00 -16.88 -22.07 -22.29 -20.10 -16.38 -15.76 -10.38 -11.86 -14.28 -18.05 -16.23 -14.78 -6.32 -9.71 -12.04 -9.43 -9.00 -8.34 -8.94 -10.52 -11.11 -10.47 -8.65 -7.14 -7.63 -9.18 -11.72 -13.78 -15.27
-12.24 -11.67 -8.59 -9.16 -10.20 -14.44 -16.53 -13.80 -11.70 -12.26 -12.54 -11.82 -11.40 -12.40 -12.50 -11.39 -14.21 -13.43 -12.93 -16.13 -18.25 -17.48 -14.99 -13.63 -11.66 -5.45 0.81 -1.70 -4.73 -3.58 -5.44 -6.32 -6.67 -6.53 -7.36 -7.22 -6.49 -7.04 -7.70 -8.85 -11.10 -14.12 -15.56 -16.83
-17.80 -14.52 -17.18 -15.69 -14.16 -12.64 -11.33 -13.26 -12.89 -13.69 -12.75 -15.33 -20.18 -19.10 -16.43 -16.18 -17.02 -18.78 -15.12 -12.28 -12.76 -11.69 -12.37 -10.38 -6.30 4.01 2.75 -9.25 -7.62 -6.13 -4.80 -4.86 -4.98 -5.31 -5.43 -4.92 -6.51 -7.42 -9.62 -12.75 -14.76 -14.68 -16.25 -17.91
-12.76 -13.74 -10.78 -9.21 -10.16 -12.88 -14.05 -17.02 -15.36 -20.00 -21.44 -21.62 -22.83 -21.16 -20.22 -14.54 -11.58 -16.08 -19.86 -14.22 -8.20 -7.66 -9.71 -6.41 2.97 1.73 -10.74 -11.66 -6.57 -4.82 -4.45 -4.62 -5.14 -5.81 -6.65 -7.78 -8.77 -9.62 -12.87 -16.06 -16.50 -16.09 -17.20 -18.48
-21.81 -21.40 -23.14 -20.93 -19.33 -21.51 -21.15 -20.11 -19.13 -22.92 -20.78 -19.14 -19.91 -20.93 -21.30 -21.58 -17.34 -14.98 -15.34 -12.07 -12.24 -8.28 -11.66 -12.19 -12.12 -9.87 -8.71 -6.08 -4.11 -4.39 -4.08 -4.30 -4.62 -5.53 -6.57 -7.61 -8.99 -10.92 -13.20 -13.55 -14.24 -14.89 -16.33 -19.54
-18.06 -18.07 -21.49 -19.90 -20.93 -23.32 -23.38 -20.38 -20.30 -20.40 -23.79 -25.84 -22.50 -23.51 -22.90 -22.20 -19.88 -13.75 -12.46 -12.64 -11.84 -11.26 -12.88 -13.08 -7.45 -4.88 -5.87 -4.81 -5.64 -5.88 -6.76 -7.11 -6.96 -7.67 -8.24 -9.65 -10.47 -12.25 -12.78 -13.08 -14.18 -15.89 -17.00 -17.85
MSLP
1016.22 1016.90 1017.26 1017.29 1017.56 1017.80 1018.15 1017.83 1017.93 1017.58 1018.68 1019.01 1019.34 1020.10 1020.61 1020.79 1021.32 1021.78 1022.37 1022.93 1023.42 1023.97 1024.46 1025.15 1025.74 1026.23 1026.54 1026.78 1027.21 1027.65 1028.27 1028.71 1029.01 1029.29 1029.66 1029.91 1029.98 1030.00 1030.01 1030.00 1029.98 1029.95 1029.85 1029.88
1017.60 1017.79 1017.97 1017.76 1017.09 1017.65 1017.77 1017.81 1017.90 1018.54 1018.40 1018.69 1019.36 1020.07 1020.58 1020.95 1021.26 1021.68 1022.21 1022.59 1022.90 1023.30 1023.74 1024.27 1024.80 1025.40 1025.74 1026.23 1026.75 1027.22 1027.86 1028.29 1028.76 1029.23 1029.63 1029.75 1029.73 1029.72 1029.80 1029.95 1030.03 1029.98 1029.93 1029.91
1018.39 1018.90 1018.65 1018.66 1016.85 1017.00 1017.38 1017.37 1017.77 1018.61 1018.17 1019.16 1019.65 1020.10 1020.42 1020.92 1021.34 1021.77 1022.05 1022.15 1022.52 1022.86 1023.23 1023.75 1024.19 1024.61 1025.23 1025.47 1026.19 1027.01 1027.53 1028.12 1028.65 1029.14 1029.45 1029.60 1029.65 1029.79 1030.01 1030.14 1030.12 1030.10 1030.05 1029.97
1019.38 1019.71 1018.99 1016.56 1016.27 1016.32 1016.88 1017.56 1018.02 1018.76 1019.04 1019.41 1019.71 1019.90 1020.17 1020.59 1021.16 1021.61 1021.76 1022.03 1022.42 1022.61 1022.91 1023.22 1023.63 1024.34 1024.89 1025.56 1026.11 1026.92 1027.52 1028.09 1028.57 1029.04 1029.39 1029.56 1029.67 1029.98 1030.20 1030.27 1030.29 1030.22 1030.10 1030.08
1019.08 1019.20 1017.62 1015.97 1016.60 1016.94 1017.15 1017.31 1017.78 1018.96 1019.09 1019.64 1020.04 1020.55 1020.59 1020.60 1020.98 1021.21 1021.49 1021.71 1021.96 1022.18 1022.62 1022.94 1023.56 1024.11 1024.70 1025.44 1025.91 1026.59 1027.21 1027.84 1028.50 1028.98 1029.35 1029.50 1029.93 1030.18 1030.32 1030.39 1030.37 1030.34 1030.17 1029.98
1019.25 1018.96 1017.85 1016.02 1016.14 1016.48 1017.14 1017.78 1017.87 1018.22 1019.03 1019.68 1020.40 1020.90 1020.29 1020.29 1020.75 1020.91 1021.09 1021.29 1021.56 1021.96 1022.44 1023.03 1023.29 1023.83 1024.58 1025.27 1025.87 1026.36 1026.94 1027.72 1028.49 1028.98 1029.25 1029.57 1029.86 1030.11 1030.35 1030.55 1030.40 1030.26 1029.98 1029.90
1018.23 1017.97 1017.19 1016.38 1016.54 1016.94 1017.96 1017.60 1017.52 1018.44 1019.02 1019.71 1020.04 1019.67 1019.69 1020.00 1020.26 1020.35 1020.66 1020.93 1021.23 1021.79 1022.38 1022.59 1023.28 1023.92 1024.78 1025.42 1025.91 1026.36 1027.18 1027.90 1028.48 1028.82 1029.06 1029.43 1029.80 1030.15 1030.42 1030.56 1030.38 1030.21 1029.91 1029.57
1018.62 1018.04 1017.07 1016.18 1017.30 1017.33 1016.60 1017.03 1017.54 1018.33 1018.57 1019.10 1018.97 1019.23 1019.65 1019.88 1020.21 1020.45 1020.57 1020.71 1021.10 1021.70 1022.14 1022.51 1023.21 1023.92 1024.74 1025.40 1025.83 1026.63 1027.35 1027.89 1028.38 1028.77 1029.06 1029.40 1029.87 1030.22 1030.42 1030.50 1030.47 1030.14 1029.61 1028.91
1016.61 1015.51 1015.51 1015.70 1015.45 1015.76 1016.00 1016.84 1017.60 1017.86 1017.98 1018.11 1018.71 1019.07 1019.34 1019.67 1019.99 1020.02 1020.20 1020.57 1020.92 1021.57 1021.96 1022.51 1023.13 1023.73 1024.65 1025.07 1025.93 1026.87 1027.53 1028.11 1028.49 1028.68 1029.03 1029.42 1029.89 1030.00 1030.40 1030.35 1030.23 1029.72 1029.28 1028.51
1016.16 1015.62 1015.48 1015.47 1015.48 1015.79 1016.18 1016.50 1016.69 1016.77 1017.26 1017.90 1018.40 1018.19 1018.65 1019.14 1019.51 1019.73 1019.98 1020.45 1020.85 1021.78 1022.16 1022.65 1023.14 1023.78 1024.45 1025.21 1026.00 1026.94 1027.79 1028.10 1028.30 1028.58 1028.82 1029.13 1029.45 1029.59 1029.75 1029.80 1029.50 1029.06 1028.54 1027.77
1015.41 1015.25 1015.25 1015.17 1015.25 1015.20 1015.71 1015.84 1016.26 1016.67 1017.07 1017.28 1017.73 1018.01 1018.48 1018.84 1019.07 1019.43 1019.75 1020.25 1020.85 1021.27 1021.71 1022.20 1023.07 1024.01 1024.77 1025.44 1026.16 1027.15 1027.61 1027.84 1028.08 1028.29 1028.62 1028.97 1029.07 1029.00 1028.74 1028.61 1028.42 1027.83 1026.94 1026.19
1013.68 1013.52 1013.73 1013.96 1013.90 1014.06 1014.95 1015.28 1015.49 1016.20 1016.61 1016.98 1017.52 1017.64 1018.03 1018.47 1018.60 1019.00 1019.44 1020.00 1020.58 1021.02 1021.62 1022.31 1023.19 1024.13 1025.03 1025.49 1026.15 1026.95 1027.40 1027.66 1027.86 1028.09 1028.38 1028.64 1028.72 1028.41 1027.94 1027.18 1026.54 1025.91 1025.17 1024.69
1012.53 1012.95 1013.13 1012.83 1013.17 1013.58 1014.31 1014.49 1014.82 1015.41 1015.81 1016.33 1016.72 1017.38 1017.88 1018.25 1018.32 1018.80 1019.44 1019.99 1020.52 1021.03 1021.82 1022.61 1023.36 1024.23 1024.98 1025.66 1026.23 1026.86 1027.25 1027.55 1027.84 1028.04 1028.30 1028.49 1028.55 1028.51 1028.01 1027.30 1026.65 1025.89 1025.24 1024.82
1011.79 1012.60 1013.00 1012.91 1012.89 1012.90 1013.62 1013.76 1014.22 1014.73 1015.20 1015.83 1016.28 1017.01 1017.56 1018.26 1018.73 1019.18 1019.63 1020.00 1020.62 1021.30 1022.21 1022.97 1023.91 1024.81 1025.22 1025.76 1026.27 1026.72 1027.16 1027.48 1027.76 1027.87 1028.12 1028.26 1028.35 1028.34 1028.14 1027.70 1027.09 1026.41 1025.84 1025.29
1011.28 1011.69 1011.74 1012.00 1012.47 1012.90 1013.55 1014.25 1014.72 1015.05 1015.36 1016.09 1016.29 1016.82 1017.74 1018.49 1019.13 1019.73 1020.45 1021.04 1021.67 1022.52 1023.30 1023.82 1024.48 1024.88 1025.13 1025.49 1026.00 1026.47 1026.82 1026.96 1027.28 1027.69 1028.01 1028.18 1028.19 1028.15 1027.96 1027.59 1027.13 1026.53 1025.72 1024.93
1010.94 1011.63 1011.87 1012.63 1012.52 1013.02 1013.73 1014.29 1014.77 1014.88 1015.38 1015.87 1016.43 1017.02 1017.65 1018.76 1019.85 1021.02 1021.94 1022.49 1023.08 1023.85 1024.28 1024.61 1024.78 1024.73 1025.11 1025.65 1026.14 1026.54 1026.66 1026.73 1026.83 1027.26 1027.71 1027.94 1027.90 1027.84 1027.60 1027.35 1026.96 1026.45 1025.78 1024.95
1011.57 1011.73 1012.18 1012.78 1012.96 1013.11 1013.59 1013.79 1014.26 1014.54 1015.16 1016.01 1016.59 1017.64 1018.67 1019.89 1021.30 1022.63 1023.67 1023.83 1024.05 1024.35 1025.00 1025.21 1025.16 1025.21 1025.48 1025.72 1026.00 1026.24 1026.34 1026.47 1026.68 1026.95 1027.27 1027.35 1027.34 1027.23 1027.06 1026.89 1026.53 1026.00 1025.37 1024.82
1010.39 1010.82 1011.40 1011.80 1012.42 1013.14 1013.59 1013.92 1014.17 1014.89 1015.99 1016.42 1017.43 1018.59 1019.94 1020.99 1022.29 1023.66 1024.69 1024.87 1024.95 1024.98 1025.09 1024.96 1025.06 1025.32 1025.43 1025.61 1025.78 1025.90 1026.14 1026.39 1026.77 1026.93 1026.79 1026.90 1026.72 1026.62 1026.48 1026.24 1025.96 1025.59 1024.89 1024.53
1011.25 1011.39 1011.84 1012.61 1013.02 1013.70 1014.42 1015.03 1015.59 1016.23 1017.09 1017.80 1018.65 1019.92 1021.02 1022.18 1023.33 1024.63 1025.24 1025.59 1025.74 1025.61 1025.05 1024.87 1024.91 1024.97 1025.10 1025.16 1025.17 1025.44 1025.45 1025.76 1025.98 1026.23 1026.36 1026.26 1026.15 1025.96 1025.80 1025.62 1025.38 1025.06 1024.65 1024.36
1012.64 1012.97 1013.43 1014.29 1014.74 1015.28 1016.10 1016.58 1017.22 1018.00 1018.85 1019.34 1020.14 1021.25 1022.33 1023.64 1024.41 1024.94 1025.36 1025.70 1025.22 1025.19 1024.87 1025.00 1025.07 1024.98 1024.86 1024.86 1024.78 1025.02 1025.12 1025.21 1025.36 1025.54 1025.72 1025.64 1025.46 1025.24 1025.05 1024.91 1024.78 1024.48 1024.22 1024.20
1014.52 1014.80 1015.27 1015.97 1016.94 1017.39 1017.90 1018.47 1019.02 1019.93 1020.59 1020.80 1021.20 1022.28 1023.28 1024.59 1025.03 1025.20 1025.72 1025.62 1025.06 1024.78 1024.66 1024.54 1024.67 1024.45 1024.33 1024.26 1024.33 1024.44 1024.58 1024.81 1024.86 1024.87 1024.88 1024.79 1024.67 1024.52 1024.35 1024.17 1024.04 1023.89 1023.75 1023.79
1016.90 1016.82 1017.32 1017.77 1018.40 1019.27 1019.83 1020.12 1020.55 1020.99 1021.46 1022.08 1022.85 1023.41 1024.05 1024.91 1025.32 1025.40 1025.33 1025.25 1024.60 1024.48 1024.45 1024.19 1023.90 1023.74 1023.68 1023.68 1023.74 1023.89 1024.02 1024.08 1024.06 1024.07 1024.10 1023.99 1023.91 1023.81 1023.62 1023.50 1023.38 1023.22 1023.20 1023.18
1018.78 1018.77 1019.13 1019.73 1020.33 1021.11 1021.57 1021.76 1022.09 1022.10 1022.47 1022.88 1023.47 1023.97 1024.37 1024.65 1024.88 1025.01 1024.96 1024.67 1024.53 1024.40 1024.15 1023.77 1023.43 1023.20 1023.07 1022.94 1022.92 1022.97 1023.12 1023.23 1023.27 1023.23 1023.20 1023.14 1023.03 1022.96 1022.91 1022.82 1022.74 1022.77 1022.77 1022.66
1020.54 1020.62 1020.74 1021.06 1021.46 1022.20 1022.66 1023.28 1023.18 1023.25 1023.46 1023.74 1024.04 1024.44 1024.54 1024.60 1024.44 1024.27 1024.20 1024.30 1024.13 1023.94 1023.72 1023.29 1023.04 1022.76 1022.40 1022.46 1022.57 1022.62 1022.66 1022.65 1022.61 1022.54 1022.42 1022.35 1022.32 1022.30 1022.32 1022.32 1022.31 1022.20 1022.11 1021.98
1022.25 1022.28 1022.06 1022.07 1022.46 1023.23 1023.51 1023.92 1024.00 1024.31 1024.40 1024.65 1024.77 1024.90 1024.58 1024.32 1024.30 1024.34 1024.27 1024.11 1023.73 1023.57 1023.33 1023.07 1022.84 1022.65 1022.44 1022.43 1022.35 1022.25 1022.16 1022.07 1022.03 1022.02 1021.93 1021.85 1021.77 1021.70 1021.65 1021.66 1021.66 1021.54 1021.35 1021.14
1023.05 1023.54 1023.67 1023.62 1023.89 1024.21 1024.41 1024.45 1024.90 1025.26 1025.04 1025.26 1025.01 1025.10 1024.90 1024.59 1024.40 1024.25 1023.99 1023.72 1023.46 1023.26 1023.04 1022.82 1022.60 1022.40 1022.09 1021.99 1021.87 1021.75 1021.62 1021.50 1021.43 1021.34 1021.25 1021.13 1021.03 1020.96 1020.91 1020.85 1020.78 1020.65 1020.47 1020.26
1023.94 1024.00 1024.74 1024.82 1024.69 1024.77 1024.81 1024.92 1025.30 1025.32 1025.22 1025.26 1025.46 1025.17 1025.02 1024.66 1024.39 1024.11 1023.85 1023.63 1023.36 1023.10 1022.86 1022.56 1022.31 1021.94 1021.70 1021.60 1021.43 1021.31 1021.19 1021.07 1020.95 1020.80 1020.63 1020.51 1020.41 1020.32 1020.25 1020.13 1019.93 1019.82 1019.64 1019.45
Wind_Speed
2 3 5 6 7 9 10 11 13 13 16 7 12 9 10 7 6 5 7 7 8 8 8 7 7 7 7 7 7 7 7 6 6 5 4 4 3 2 2 3 4 4 6 5
2 2 4 7 11 11 16 6 6 4 13 7 6 5 4 8 8 6 8 7 7 7 8 11 11 10 9 8 8 7 7 7 6 4 4 3 2 3 3 4 4 5 6 6
8 4 6 12 13 16 7 5 10 15 14 3 5 8 8 8 6 8 8 7 6 7 7 7 10 9 9 9 6 7 6 6 5 5 3 2 2 4 4 4 4 5 5 7
3 3 9 3 2 3 14 9 9 1 5 7 6 5 5 6 8 9 7 7 6 6 6 7 5 6 4 6 7 7 6 6 5 4 3 2 3 3 3 2 4 6 7 7
5 7 8 7 6 9 10 11 11 11 7 5 5 4 5 6 7 8 8 8 7 6 5 4 6 6 6 6 7 7 8 6 5 4 3 2 2 0 1 3 4 5 6 6
5 4 8 3 2 5 5 7 9 9 10 8 6 3 5 5 7 9 8 6 7 6 3 3 4 6 6 6 7 9 6 5 5 3 3 2 1 2 1 2 7 7 7 7
6 7 8 5 5 4 6 8 4 7 6 7 5 6 5 4 6 7 7 9 5 6 7 7 5 6 7 6 9 5 5 5 4 3 3 1 2 1 1 3 6 5 9 8
2 3 12 7 4 9 6 3 6 6 7 8 7 6 6 6 6 8 9 7 7 6 7 5 6 7 7 8 6 6 5 5 3 2 1 1 1 2 3 3 5 6 7 8
12 8 1 11 4 4 5 7 6 6 8 9 7 7 8 8 9 9 9 8 5 7 7 6 6 7 7 5 7 6 5 4 2 0 1 1 2 3 2 2 3 5 6 8
4 3 6 9 5 3 7 8 8 7 6 7 9 8 8 7 7 7 6 9 5 5 6 7 6 6 4 7 6 6 4 4 2 2 2 2 2 3 2 3 4 5 6 8
2 1 2 7 8 8 9 9 5 5 7 10 6 8 8 7 7 7 8 6 5 8 8 8 8 6 6 6 7 5 3 3 3 2 3 3 4 4 5 5 7 7 8 8
6 8 7 8 12 12 11 10 10 10 7 7 8 10 7 9 8 7 8 4 5 5 5 5 6 7 6 6 6 6 4 3 3 3 3 3 3 5 11 15 18 19 20 14
5 7 9 8 7 5 10 12 10 9 9 8 6 9 6 7 6 6 4 5 6 7 5 7 7 7 6 6 6 5 4 3 3 4 3 4 3 4 7 5 14 13 12 13
8 7 4 6 9 8 10 9 6 4 5 7 9 5 5 6 2 4 6 5 5 5 4 5 5 4 4 6 5 4 5 6 3 4 4 3 4 5 4 5 6 6 8 13
13 11 14 3 6 8 4 5 5 8 7 7 5 6 6 6 5 4 4 5 6 6 5 5 5 6 4 5 6 6 5 5 4 4 3 4 3 4 4 4 5 6 7 7
3 9 10 9 13 8 7 4 8 10 7 7 6 7 5 4 5 6 5 4 5 3 4 4 4 2 4 4 3 3 4 7 5 4 3 3 4 4 4 4 4 5 5 7
5 7 1 5 13 12 11 9 12 10 4 6 6 5 7 7 7 6 3 3 4 3 1 3 5 1 3 5 6 4 3 3 5 2 4 4 4 4 4 4 5 4 6 6
13 12 7 9 8 8 8 10 6 4 4 4 7 8 7 6 5 6 4 2 4 4 3 6 5 3 4 4 4 3 3 3 3 4 3 4 4 4 4 4 4 5 6 5
7 10 3 3 2 3 3 4 4 6 6 6 8 7 6 6 6 5 3 3 3 2 4 2 3 0 3 5 6 4 4 4 4 3 4 4 4 4 4 4 5 5 5 5
4 6 7 6 5 4 6 6 7 8 5 7 9 7 7 4 4 5 2 2 4 4 2 4 4 5 5 4 5 2 3 4 4 4 3 4 4 4 4 6 6 5 4 4
5 6 8 8 8 8 8 5 7 7 4 5 6 6 6 4 2 4 3 1 3 2 3 3 3 3 3 3 2 2 2 3 4 4 4 4 4 4 5 5 5 5 5 3
3 5 7 7 8 8 5 5 7 7 7 6 6 6 6 4 2 2 4 4 2 4 3 3 2 4 4 6 3 3 4 5 5 3 4 4 5 5 6 5 5 4 4 4
6 5 7 6 6 7 5 7 5 5 6 5 5 4 3 2 3 2 2 2 2 4 3 4 5 7 8 5 4 4 4 4 5 5 5 5 6 5 5 5 5 4 5 5
3 6 5 5 6 4 7 3 4 5 4 3 2 2 2 1 2 1 1 4 5 5 4 4 4 8 6 1 1 2 3 4 5 5 5 7 5 5 5 5 5 5 5 5
5 4 4 5 7 4 5 3 5 4 4 3 3 2 1 1 1 2 2 4 5 4 3 5 6 4 1 2 3 4 4 4 4 5 5 5 5 5 5 4 5 6 5 5
4 3 3 4 3 2 2 2 3 1 2 2 2 2 2 2 2 2 3 3 3 3 2 3 3 3 3 3 3 4 4 5 5 5 6 6 5 5 5 6 6 6 5 5
3 4 3 3 3 2 2 2 3 1 1 2 1 3 2 3 3 2 3 2 3 3 3 3 3 3 2 3 4 4 4 5 6 5 5 5 5 5 6 6 6 5 5 6
Wind_Direction
204 163 183 204 204 175 195 212 222 257 232 177 206 206 214 211 214 205 216 218 211 213 208 199 191 197 201 203 191 185 181 181 191 179 173 151 133 123 57 43 22 1 349 348
282 169 223 261 234 189 211 206 242 223 262 175 218 225 192 217 220 232 243 237 226 216 196 200 198 202 200 200 201 175 187 190 174 168 164 144 109 46 38 20 6 354 348 338
243 80 59 272 223 212 203 191 216 228 238 146 207 212 217 229 211 216 223 230 237 226 209 200 197 200 202 207 170 185 177 164 162 158 154 101 64 41 18 356 345 341 335 330
137 87 228 251 104 148 213 233 207 32 218 197 183 193 197 203 195 215 211 211 219 220 214 214 200 202 196 170 174 173 171 165 165 160 145 121 62 43 344 338 339 328 323 314
183 199 322 266 181 160 165 244 176 207 226 189 133 119 265 206 208 205 201 206 207 199 188 181 203 204 182 171 166 165 180 175 170 161 144 76 60 55 325 335 328 307 303 306
133 198 234 295 111 109 87 267 204 181 202 156 132 139 250 215 202 217 215 196 191 184 184 212 226 166 161 182 175 193 167 159 150 148 132 97 58 11 64 331 304 307 302 302
210 229 273 216 176 143 136 257 172 169 158 147 170 195 215 186 208 210 196 199 189 180 209 224 173 152 187 167 203 146 134 133 142 124 95 55 37 22 329 294 300 301 295 289
119 228 267 151 59 171 201 18 148 173 171 177 209 237 228 229 237 211 210 207 207 208 224 209 174 162 181 196 142 138 141 144 138 101 15 42 62 292 302 295 294 291 293 295
189 201 67 194 172 187 152 154 196 182 198 194 201 217 224 225 222 219 214 223 208 208 223 198 177 174 186 173 145 145 141 154 170 209 278 264 255 282 288 242 263 285 288 294
96 197 200 207 226 208 197 204 195 206 177 174 211 221 236 229 229 222 221 233 207 167 211 222 183 173 162 146 139 138 157 189 203 235 291 257 272 262 217 240 262 270 274 274
250 248 88 271 234 231 218 231 201 175 202 214 200 244 224 240 231 228 228 218 185 201 212 218 161 157 146 142 138 154 163 204 225 229 238 272 259 240 252 246 240 249 247 249
206 196 169 209 219 217 213 221 216 207 236 230 195 229 212 237 231 226 232 191 202 205 193 172 158 152 156 151 154 159 185 201 214 221 227 253 264 283 279 283 285 287 291 292
199 179 203 215 222 187 202 221 220 201 219 236 213 214 198 229 217 218 200 191 201 201 165 164 163 164 162 158 155 171 192 204 205 228 231 243 254 261 289 298 300 299 297 305
215 133 228 192 232 202 204 217 185 210 219 206 229 181 200 211 151 197 206 202 169 155 140 134 132 169 165 156 154 169 198 227 213 226 228 223 236 251 258 279 297 300 298 302
228 199 227 255 221 236 172 149 188 224 224 235 211 201 178 206 216 204 118 108 97 106 121 135 153 221 177 163 181 200 203 210 206 225 230 231 239 247 249 259 268 276 302 302
211 198 224 213 240 225 185 190 208 235 218 234 206 203 194 129 108 101 95 103 114 175 187 180 212 232 160 159 192 207 215 234 214 195 214 226 235 239 252 252 257 263 279 289
147 262 67 255 232 233 209 218 214 229 196 190 208 127 117 106 93 98 81 45 74 95 138 169 241 206 186 190 198 220 214 214 223 206 213 217 222 232 243 242 255 256 264 277
222 240 196 193 200 213 227 221 213 170 172 142 115 115 120 133 150 147 135 66 36 349 258 231 241 247 229 212 208 210 204 220 204 223 222 230 232 234 237 241 248 260 277 281
197 232 217 178 72 117 90 109 107 105 104 114 117 116 110 97 105 119 140 110 92 31 288 354 336 35 235 227 193 202 208 227 233 233 228 235 243 235 234 237 248 252 265 282
54 64 82 90 59 60 100 78 91 86 68 94 105 110 105 111 130 126 91 219 206 216 256 274 279 270 257 252 292 208 210 220 235 239 226 234 236 241 237 239 249 259 261 266
91 98 97 92 76 59 68 80 105 100 76 77 104 114 118 122 116 121 86 18 268 233 250 275 247 255 240 250 229 203 201 223 229 233 232 241 246 244 249 247 250 260 267 261
37 78 94 101 104 94 55 82 100 105 96 87 81 101 116 124 163 242 226 205 283 330 327 303 266 246 241 253 200 208 222 224 235 233 239 237 241 250 253 253 261 262 257 260
44 59 78 72 85 95 71 56 67 91 103 108 121 130 114 138 165 120 39 280 273 289 269 274 267 268 265 242 218 226 224 230 242 242 238 238 244 246 254 261 263 260 266 264
44 59 76 90 103 99 91 71 77 75 88 100 130 184 149 82 340 218 302 293 275 282 271 268 277 283 300 119 221 226 243 251 253 251 251 252 249 250 252 255 263 263 258 264
34 30 69 90 93 91 105 114 89 55 60 47 23 343 244 237 137 250 252 274 286 311 296 295 304 332 192 223 237 246 251 251 253 253 254 253 254 252 250 244 250 256 255 251
48 52 34 53 97 98 91 88 95 22 54 44 16 13 336 318 284 274 285 295 295 298 289 275 265 261 238 241 259 259 263 265 265 262 258 254 253 253 252 254 253 252 253 252
63 76 56 42 24 48 80 103 111 127 123 129 214 282 297 308 307 314 318 309 301 288 274 274 262 277 262 266 271 270 269 267 264 265 262 260 258 254 255 256 255 252 253 255